Weather History for Taunton, MA

Change the Weather History Date:

Wednesday, March 13, 2013

  Actual Average Record
Temperature  
Mean Temperature 43 °F -  
Max Temperature 54 °F 44 °F 64 °F (1957)
Min Temperature 30 °F 27 °F 9 °F (1998)
Degree Days  
Heating Degree Days 22    
Moisture  
Dew Point 32 °F    
Average Humidity 61    
Maximum Humidity 90    
Minimum Humidity 28    
Precipitation  
Precipitation 0.01 in - - ()
Sea Level Pressure  
Sea Level Pressure 29.75 in    
Wind  
Wind Speed 7 mph (WNW)    
Max Wind Speed 13 mph    
Max Gust Speed 20 mph    
Visibility 10 miles    
Events Rain    
Averages and records for this station are not official NWS values.
T = Trace of Precipitation, MM = Missing Value Source: NWS Daily Summary

Daily Weather History Graph

Daily Weather History Graph

Search for Another Location

Airport:

Trip Planner

Search our weather history database for the weather conditions in past years. The results will help you decide how hot, cold, wet, or windy it might be!

Date:

Astronomy

Mar. 13, 2013 Rise Set
Actual Time 6:58 AM EDT 6:48 PM EDT
Civil Twilight 6:31 AM EDT 7:16 PM EDT
Nautical Twilight 5:58 AM EDT 7:48 PM EDT
Astronomical Twilight 5:26 AM EDT 8:21 PM EDT
Moon 7:34 AM EDT (3/13) 9:04 PM EDT (3/13)
Length of Visible Light 12h 45m
Length of Day
11h 49m
Waxing Crescent, 4% of the Moon is Illuminated
Mar 13
Waxing Crescent
Mar 19
First Quarter
Mar 27
Full
Apr 3
Last Quarter
Apr 10
New

Hourly Weather History & Observations

Time (EDT) Temp. Windchill Dew Point Humidity Pressure Visibility Wind Dir Wind Speed Gust Speed Precip Events Conditions
12:10 AM 54.0 °F - 51.1 °F 90% 29.75 in 5.0 mi SW 8.1 mph - N/A   Overcast
12:52 AM 53.1 °F - 50.0 °F 89% 29.73 in 8.0 mi SSE 5.8 mph - 0.00 in Rain Light Rain
1:52 AM 52.0 °F - 48.9 °F 89% 29.74 in 10.0 mi West 5.8 mph - 0.01 in   Overcast
2:12 AM 51.1 °F - 48.0 °F 89% 29.74 in 10.0 mi NW 6.9 mph - N/A   Overcast
2:35 AM 48.0 °F - 42.1 °F 80% 29.75 in 10.0 mi NW 9.2 mph - 0.00 in Rain Light Rain
2:52 AM 48.0 °F - 41.0 °F 77% 29.76 in 10.0 mi NW 6.9 mph - 0.00 in   Overcast
3:03 AM 46.9 °F - 41.0 °F 80% 29.75 in 10.0 mi WNW 6.9 mph - 0.00 in Rain Light Rain
4:52 AM 45.0 °F 40.1 °F 37.0 °F 74% 29.75 in 10.0 mi NW 9.2 mph - N/A   Overcast
5:52 AM 43.0 °F 37.7 °F 35.1 °F 74% 29.77 in 10.0 mi WNW 9.2 mph - N/A   Overcast
6:52 AM 42.1 °F 37.7 °F 33.1 °F 70% 29.76 in 10.0 mi NW 6.9 mph - N/A   Mostly Cloudy
7:52 AM 39.9 °F 35.8 °F 32.0 °F 73% 29.78 in 10.0 mi WNW 5.8 mph - N/A   Partly Cloudy
8:52 AM 44.1 °F 40.1 °F 30.9 °F 60% 29.77 in 10.0 mi Variable 6.9 mph - N/A   Clear
9:52 AM 45.0 °F 41.2 °F 30.0 °F 56% 29.76 in 10.0 mi NW 6.9 mph - N/A   Clear
10:52 AM 48.0 °F - 30.9 °F 52% 29.75 in 10.0 mi WNW 9.2 mph 17.3 mph N/A   Clear
11:52 AM 48.9 °F - 30.9 °F 50% 29.75 in 10.0 mi WNW 10.4 mph - N/A   Clear
12:52 PM 52.0 °F - 30.0 °F 43% 29.74 in 10.0 mi WNW 8.1 mph - N/A   Clear
1:52 PM 54.0 °F - 28.9 °F 38% 29.72 in 10.0 mi NW 8.1 mph - N/A   Clear
2:52 PM 53.1 °F - 27.0 °F 37% 29.71 in 10.0 mi West 12.7 mph 19.6 mph N/A   Clear
3:52 PM 53.1 °F - 25.0 °F 34% 29.70 in 10.0 mi WNW 11.5 mph 18.4 mph N/A   Clear
4:52 PM 53.1 °F - 23.0 °F 31% 29.70 in 10.0 mi WNW 9.2 mph 17.3 mph N/A   Clear
5:52 PM 51.1 °F - 19.0 °F 28% 29.71 in 10.0 mi West 12.7 mph 19.6 mph N/A   Clear
6:52 PM 48.0 °F - 19.0 °F 32% 29.74 in 10.0 mi WNW 9.2 mph - N/A   Clear
7:52 PM 45.0 °F 41.8 °F 19.0 °F 36% 29.77 in 10.0 mi WNW 5.8 mph - N/A   Clear
8:52 PM 41.0 °F - 19.0 °F 41% 29.79 in 10.0 mi Calm Calm - N/A   Clear
9:52 PM 34.0 °F - 25.0 °F 70% 29.79 in 10.0 mi Calm Calm - N/A   Clear
10:52 PM 32.0 °F - 23.0 °F 69% 29.79 in 10.0 mi Calm Calm - N/A   Clear
11:52 PM 30.0 °F - 23.0 °F 75% 29.78 in 10.0 mi Calm Calm - N/A   Clear